Location: Asheville, NC
(35.6000°N, 82.5500°W)
Time: 09:26:44

Vanguard 1 Rocket - Pass Details

Date: 14 March 2018
Orbit: 655 x 4222 km, 34.3° (Epoch: 19 March)

Event Time Altitude Azimuth Distance (km) Brightness Sun altitude
Rises 22:26:57 0° 277° (W) 4,726 12.0 -34.4°
Reaches altitude 10° 22:29:25 10° 276° (W) 4,061 11.4 -34.9°
Maximum altitude 22:41:10 79° 192° (SSW) 2,755 9.5 -37.0°
Enters shadow 22:45:21 62° 124° (SE) 3,298 9.7 -37.7°
